THORAD DELTA 1 DEB, 42608

Orbit data source: Space-Track

THORAD DELTA 1 DEB, 42608 is space debris in SSO originally from a launch on Fri, 15 Nov 1974 UTC launched from the Air Force Western Test Range (AFWTR). Debris objects in space refer to the collection of defunct objects orbiting the Earth. Examples of debris include non-operational satellites, rocket bodies, and fragments generated from explosions, collisions, or faulty payload assembly.

Loading next visibility...
Identifier
42608, 1974-089FZ
Orbit
SSO
Country
Flag of USUS
Related business
Manufacturer
Unknown
Mission
Spacecraft
Bus & Motor
Unknown
Mass
Unknown
Launch date (UTC)
1974-11-15 (51 years ago)
Launch vehicle
Unknown
Launch site
Air Force Western Test Range (AFWTR)
Object type
Payload
Rocket body
Debris
Shape & HBR
Unknown shape, 0.1 m
Radar Cross Section
Small (<0.1 m²)

Expand to show TLE details & history
Last TLE update: 2 days ago

TLE from 2 days ago
0 THORAD DELTA 1 DEB
1 42608U 74089FZ  25300.21213434 -.00000015  00000-0  26889-3 0  9991
2 42608 102.5185 282.3518 0073476 269.6191  89.6444 12.28101546534821
Epoch: 2025-10-27T05:05Z
TLE epoch observation values (Epoch: 2025-10-27T05:05:28.406Z)
Latitude
-0.00004°
Longitude
170.16623°
Altitude
1,560.027 km
Speed
7.087 km/s
True Right ascension
18h 49m 24s
True Declination
0° 00' 00"
Sunlit
Object was in daylight at epoch
Visualization orbit readout
Latitude
Unknown
Longitude
Unknown
Altitude
Unknown
Speed
Unknown
Apparent Right ascension
Unknown
Apparent Declination
Unknown
Sunlit
N/A
Visualization observer readout
Local Sidereal Time
08:34:16
Azimuth
Unknown
Elevation
Unknown
Doppler factor
Unknown
Orbital elements
Apogee altitude
1,613.36 km
Perigee altitude
1,496.78 km
Semi-major axis
7,933.207 km
Eccentricity
0.00735
Inclination
102.5185°
RAAN
282.3518°
Arg. of periapsis
269.6191°
True anomaly
90.48637°
Mean anomaly
89.6444°
Eccentric anomaly
90.06539°
Mean motion
3.07164 °/min
Orbital period
117.2 mins
BSTAR
0.00026889
Loading maneuver chart data...
Computing Atmospheric mass density...
Loading historical data...
Loading historical data...
Loading historical data...
Loading historical data...
Loading historical data...
Loading historical data...
Loading historical data...

Documentation

Showing up to 5 results
|